Location: Cherry Springs State Park
(41.6616°N, 77.8240°W)
Time: 07:01:16
(UTC-04:00)

Amateur Radio Satellites - All Passes

Search period start: 23 October 2014 06:31
Search period end: 24 October 2014 06:31
Location: Cherry Springs State Park, 41.6616°N, 77.8240°W

Satellite Date Start Highest point End Downlink Frequencies (MHz)
Time Altitude Azimuth
Uosat F 23 Oct 06:38:13 06:42:42 33° 293° (WNW) 06:47:09 435.120 FM
PCSat 23 Oct 06:52:40 06:55:47 15° 320° (NW) 06:58:55 145.825 MHz
JAS-2 23 Oct 06:59:36 07:07:22 88° 285° (WNW) 07:15:14 435.800 - 435.900 CW/SSB, 435.910 FM
AO-7 23 Oct 07:18:38 07:25:39 32° 303° (WNW) 07:32:40 29.400 - 29.500 MHz
STRAND 1 23 Oct 07:20:23 07:25:30 76° 257° (WSW) 07:30:41 ?
Hamsat 23 Oct 07:29:17 07:33:21 50° 287° (WNW) 07:37:25 145.90 MHz
RS-15 23 Oct 07:50:34 08:01:46 77° 55° (NE) 08:13:27 29.354 - 29.394 USB, Beacon 29.352 USB
Saudisat 1A 23 Oct 08:27:40 08:32:00 64° 120° (ESE) 08:36:22 436.775 MHz
SO-67 23 Oct 08:27:59 08:31:26 73° 283° (WNW) 08:34:51 435.3500 MHz FM
JAS-2 23 Oct 08:46:09 08:51:24 21° 303° (WNW) 08:56:44 435.800 - 435.900 CW/SSB, 435.910 FM
HO-68 23 Oct 10:02:34 10:09:41 59° 102° (ESE) 10:16:45 435.675 MHz FM
RS-15 23 Oct 10:04:00 10:13:07 30° 256° (WSW) 10:22:34 29.354 - 29.394 USB, Beacon 29.352 USB
Saudisat 1A 23 Oct 10:08:57 10:11:59 18° 319° (NW) 10:15:02 436.775 MHz
MaSat-1 23 Oct 10:17:58 10:20:35 63° 246° (WSW) 10:23:00 437.345 MHz
PANSAT 23 Oct 10:18:12 10:19:27 11° 179° (S) 10:20:42 not established
ZACube-1 23 Oct 10:23:31 10:25:26 13° 90° (E) 10:27:20 437.345 MHz
UKube-1 23 Oct 10:30:27 10:34:35 40° 99° (E) 10:38:41 145.840 MHz, 145.915 MHz
FUNcube-1 23 Oct 11:07:02 11:11:03 39° 98° (E) 11:14:58 145.950 - 145.970 MHz USB
Oscar 11 23 Oct 11:13:30 11:17:48 71° 285° (WNW) 11:22:04 145.825 FM, Beacon 2401.500 USB
Sapphire 23 Oct 11:50:13 11:51:45 11° 34° (NE) 11:53:16 437.095 MHz 1200 baud AX-25 AFSK
HO-68 23 Oct 11:51:01 11:56:56 29° 300° (WNW) 12:02:50 435.675 MHz FM
ZACube-1 23 Oct 11:58:01 12:02:13 53° 287° (WNW) 12:06:17 437.345 MHz
UKube-1 23 Oct 12:07:21 12:10:29 20° 295° (WNW) 12:13:35 145.840 MHz, 145.915 MHz
PCSat 23 Oct 12:11:43 12:15:03 16° 40° (NE) 12:18:23 145.825 MHz
KITSAT 1 23 Oct 12:24:43 12:32:14 45° 111° (ESE) 12:39:46 435.175 FM
Oscar 16 23 Oct 12:43:35 12:47:21 21° 63° (ENE) 12:51:08 437.025 USB, Beacon 2401.1428
FUNcube-1 23 Oct 12:44:11 12:47:08 18° 295° (WNW) 12:50:02 145.950 - 145.970 MHz USB
AO-Echo 23 Oct 12:54:02 12:56:02 12° 58° (ENE) 12:58:03 ?
Uribyol 2 23 Oct 13:01:38 13:04:10 14° 59° (ENE) 13:06:43 436.500 FM
ITAMSAT 1 23 Oct 13:07:00 13:09:44 15° 59° (ENE) 13:12:29 435.822 SSB
Sapphire 23 Oct 13:31:09 13:36:28 52° 56° (NE) 13:41:45 437.095 MHz 1200 baud AX-25 AFSK
Oscar 19 23 Oct 13:35:44 13:40:47 60° 72° (ENE) 13:45:51 437.125 CW, 437.150 USB
SO-50 23 Oct 13:41:41 13:46:06 61° 119° (ESE) 13:50:39 436.795 FM
AO-27 23 Oct 13:49:49 13:54:29 35° 68° (ENE) 13:59:12 436.795 MHz FM
JAS-1B 23 Oct 13:51:42 13:57:42 68° 73° (ENE) 14:03:20 435.800 - 435.900 CW/SSB
PCSat 23 Oct 13:53:50 13:59:18 85° 61° (ENE) 14:04:43 145.825 MHz
ISS 23 Oct 13:59:52 14:03:11 79° 143° (SE) 14:06:32 145.800 FM
Oscar 10/S400 23 Oct 14:13:01 14:30:32 38° 153° (SSE) 14:53:09 145.825 - 145.975 CW/USB, Beacon 145.810 USB
KITSAT 1 23 Oct 14:19:56 14:27:36 46° 311° (NW) 14:35:20 435.175 FM
Oscar 16 23 Oct 14:21:19 14:26:20 51° 260° (W) 14:31:22 437.025 USB, Beacon 2401.1428
AO-Echo 23 Oct 14:29:09 14:34:01 85° 257° (WSW) 14:39:04 ?
AO-7 23 Oct 14:35:12 14:40:44 20° 50° (NE) 14:46:17 29.400 - 29.500 MHz
Uribyol 2 23 Oct 14:37:42 14:42:55 83° 256° (WSW) 14:48:11 436.500 FM
ITAMSAT 1 23 Oct 14:43:20 14:48:33 79° 257° (WSW) 14:53:48 435.822 SSB
Gurwin Techsat 1B 23 Oct 14:53:53 14:59:09 69° 73° (ENE) 15:04:26 435.225 FM
TMSAT-1 23 Oct 15:06:10 15:11:24 66° 73° (ENE) 15:16:41 436.925 FM
UOSAT-12 23 Oct 15:13:56 15:18:23 48° 117° (ESE) 15:22:55 437.025 FM, 437.400 FM
Sapphire 23 Oct 15:15:23 15:19:30 22° 253° (WSW) 15:23:36 437.095 MHz 1200 baud AX-25 AFSK
Oscar 19 23 Oct 15:17:18 15:20:31 17° 269° (W) 15:23:44 437.125 CW, 437.150 USB
SO-50 23 Oct 15:23:44 15:27:04 20° 319° (NW) 15:30:29 436.795 FM
AO-27 23 Oct 15:29:30 15:34:00 29° 264° (W) 15:38:33 436.795 MHz FM
ISS 23 Oct 15:37:30 15:40:12 22° 341° (NNW) 15:42:54 145.800 FM
PCSat 23 Oct 15:39:39 15:41:55 13° 258° (WSW) 15:44:11 145.825 MHz
JAS-1B 23 Oct 15:45:39 15:48:55 15° 269° (W) 15:52:05 435.800 - 435.900 CW/SSB
Uosat F 23 Oct 16:12:53 16:17:35 43° 70° (ENE) 16:22:20 435.120 FM
KITSAT 1 23 Oct 16:20:50 16:25:24 16° 337° (NNW) 16:29:59 435.175 FM
AO-7 23 Oct 16:24:04 16:32:21 83° 70° (ENE) 16:40:40 29.400 - 29.500 MHz
Gurwin Techsat 1B 23 Oct 16:36:40 16:39:36 15° 270° (W) 16:42:34 435.225 FM
TMSAT-1 23 Oct 16:48:42 16:51:47 16° 270° (W) 16:54:54 436.925 FM
Hamsat 23 Oct 16:50:07 16:51:12 11° 62° (ENE) 16:52:17 145.90 MHz
Saudisat 1A 23 Oct 16:54:07 16:58:28 54° 53° (NE) 17:02:48 436.775 MHz
UOSAT-12 23 Oct 16:54:58 16:58:46 24° 316° (NW) 17:02:37 437.025 FM, 437.400 FM
JAS-2 23 Oct 17:12:23 17:17:52 41° 66° (ENE) 17:24:03 435.800 - 435.900 CW/SSB, 435.910 FM
ISS 23 Oct 17:15:48 17:17:48 15° 2° (N) 17:19:48 145.800 FM
OPAL 23 Oct 17:49:15 17:53:32 28° 98° (E) 17:57:46 ?
Uosat F 23 Oct 17:52:39 17:56:32 23° 266° (W) 18:00:28 435.120 FM
AO-7 23 Oct 18:20:16 18:26:00 20° 269° (W) 18:31:47 29.400 - 29.500 MHz
Hamsat 23 Oct 18:22:22 18:26:34 71° 259° (WSW) 18:30:46 145.90 MHz
KITSAT 1 23 Oct 18:22:25 18:25:06 12° 9° (N) 18:27:46 435.175 FM
Saudisat 1A 23 Oct 18:34:50 18:37:37 16° 250° (WSW) 18:40:22 436.775 MHz
ISS 23 Oct 18:52:27 18:55:21 26° 22° (NNE) 18:58:14 145.800 FM
JAS-2 23 Oct 18:57:55 19:03:04 32° 267° (W) 19:08:50 435.800 - 435.900 CW/SSB, 435.910 FM
SO-67 23 Oct 19:00:45 19:03:52 34° 73° (ENE) 19:07:01 435.3500 MHz FM
OPAL 23 Oct 19:27:59 19:32:25 34° 295° (WNW) 19:36:49 ?
STRAND 1 23 Oct 19:31:03 19:35:48 36° 97° (E) 19:40:29 ?
KITSAT 1 23 Oct 20:17:23 20:23:59 27° 38° (NE) 20:30:33 435.175 FM
AO-40 23 Oct 20:20:50 23:14:57 24° 120° (ESE) 00:33:06 Beacon 2401.320
ISS 23 Oct 20:28:56 20:32:12 53° 220° (SW) 20:35:27 145.800 FM
HO-68 23 Oct 20:31:14 20:37:57 46° 65° (ENE) 20:44:42 435.675 MHz FM
SO-50 23 Oct 20:34:17 20:36:09 12° 34° (NE) 20:38:02 436.795 FM
SO-67 23 Oct 20:35:21 20:36:59 13° 268° (W) 20:38:38 435.3500 MHz FM
STRAND 1 23 Oct 21:10:28 21:14:50 29° 294° (WNW) 21:19:11 ?
ZACube-1 23 Oct 21:20:31 21:22:41 13° 63° (ENE) 21:24:51 437.345 MHz
UKube-1 23 Oct 21:26:04 21:30:03 36° 70° (ENE) 21:34:04 145.840 MHz, 145.915 MHz
FUNcube-1 23 Oct 22:03:15 22:07:24 35° 70° (ENE) 22:11:31 145.950 - 145.970 MHz USB
Oscar 11 23 Oct 22:08:22 22:12:42 89° 257° (WSW) 22:17:03 145.825 FM, Beacon 2401.500 USB
KITSAT 1 23 Oct 22:12:18 22:20:26 88° 241° (WSW) 22:28:30 435.175 FM
SO-50 23 Oct 22:12:55 22:17:43 60° 54° (NE) 22:22:32 436.795 FM
RS-15 23 Oct 22:14:36 22:24:53 48° 110° (ESE) 22:35:03 29.354 - 29.394 USB, Beacon 29.352 USB
HO-68 23 Oct 22:19:19 22:25:44 35° 263° (W) 22:32:14 435.675 MHz FM
ZACube-1 23 Oct 22:53:57 22:58:32 68° 259° (WSW) 23:03:05 437.345 MHz
UKube-1 23 Oct 23:03:07 23:06:21 20° 266° (W) 23:09:36 145.840 MHz, 145.915 MHz
FUNcube-1 23 Oct 23:40:10 23:43:49 23° 266° (W) 23:47:27 145.950 - 145.970 MHz USB
UOSAT-12 23 Oct 23:43:19 23:47:52 45° 51° (NE) 23:52:20 437.025 FM, 437.400 FM
SO-50 23 Oct 23:54:37 23:57:50 18° 250° (WSW) 00:01:03 436.795 FM
MaSat-1 23 Oct 23:54:42 23:58:25 31° 110° (ESE) 00:01:51 437.345 MHz
KITSAT 1 24 Oct 00:09:45 00:14:41 18° 259° (W) 00:19:36 435.175 FM
RS-15 24 Oct 00:26:27 00:37:05 53° 313° (NW) 00:47:46 29.354 - 29.394 USB, Beacon 29.352 USB
UOSAT-12 24 Oct 01:24:07 01:27:43 22° 249° (WSW) 01:31:16 437.025 FM, 437.400 FM
MaSat-1 24 Oct 01:30:49 01:34:05 23° 303° (WNW) 01:37:07 437.345 MHz
JAS-1B 24 Oct 01:34:41 01:39:24 19° 93° (E) 01:44:37 435.800 - 435.900 CW/SSB
Oscar 19 24 Oct 01:47:59 01:51:45 20° 93° (E) 01:55:30 437.125 CW, 437.150 USB
AO-27 24 Oct 02:04:48 02:06:31 12° 89° (E) 02:08:15 436.795 MHz FM
Oscar 16 24 Oct 02:32:39 02:37:42 56° 101° (E) 02:42:42 437.025 USB, Beacon 2401.1428
AO-Echo 24 Oct 02:36:15 02:41:01 33° 96° (E) 02:45:45 ?
RS-15 24 Oct 02:44:34 02:52:46 23° 345° (NNW) 03:01:05 29.354 - 29.394 USB, Beacon 29.352 USB
Uribyol 2 24 Oct 02:50:36 02:55:20 34° 97° (E) 03:00:02 436.500 FM
ITAMSAT 1 24 Oct 02:56:18 03:01:08 37° 97° (E) 03:05:55 435.822 SSB
Gurwin Techsat 1B 24 Oct 03:10:26 03:14:54 27° 95° (E) 03:19:21 435.225 FM
TMSAT-1 24 Oct 03:22:23 03:26:46 26° 94° (E) 03:31:07 436.925 FM
JAS-1B 24 Oct 03:23:48 03:30:22 76° 287° (WNW) 03:38:14 435.800 - 435.900 CW/SSB
Oscar 19 24 Oct 03:26:26 03:31:20 48° 289° (WNW) 03:36:13 437.125 CW, 437.150 USB
AO-27 24 Oct 03:41:24 03:46:40 84° 285° (WNW) 03:51:53 436.795 MHz FM
Oscar 16 24 Oct 04:13:05 04:16:36 19° 298° (WNW) 04:20:08 437.025 USB, Beacon 2401.1428
Sapphire 24 Oct 04:13:11 04:18:18 46° 113° (ESE) 04:23:28 437.095 MHz 1200 baud AX-25 AFSK
AO-Echo 24 Oct 04:15:00 04:19:42 33° 292° (WNW) 04:24:24 ?
Uosat F 24 Oct 04:22:18 04:24:25 13° 90° (E) 04:26:31 435.120 FM
AO-7 24 Oct 04:26:13 04:33:00 27° 94° (E) 04:39:44 29.400 - 29.500 MHz
Uribyol 2 24 Oct 04:30:13 04:34:42 30° 294° (WNW) 04:39:09 436.500 FM
PCSat 24 Oct 04:35:30 04:40:53 77° 117° (ESE) 04:46:20 145.825 MHz
ITAMSAT 1 24 Oct 04:36:03 04:40:28 29° 294° (WNW) 04:44:52 435.822 SSB
Gurwin Techsat 1B 24 Oct 04:50:02 04:54:57 39° 291° (WNW) 04:59:50 435.225 FM
RS-15 24 Oct 05:01:42 05:10:24 25° 21° (NNE) 05:19:17 29.354 - 29.394 USB, Beacon 29.352 USB
TMSAT-1 24 Oct 05:01:51 05:06:48 41° 291° (WNW) 05:11:43 436.925 FM
OPAL 24 Oct 05:04:01 05:09:02 55° 70° (ENE) 05:14:01 ?
JAS-1B 24 Oct 05:17:07 05:20:14 14° 303° (WNW) 05:23:33 435.800 - 435.900 CW/SSB
AO-27 24 Oct 05:23:34 05:25:20 12° 303° (WNW) 05:27:07 436.795 MHz FM
Sapphire 24 Oct 05:57:15 06:01:54 29° 311° (NW) 06:06:35 437.095 MHz 1200 baud AX-25 AFSK
Uosat F 24 Oct 05:58:40 06:03:44 75° 286° (WNW) 06:08:45 435.120 FM
JAS-2 24 Oct 06:04:59 06:12:19 43° 96° (E) 06:19:38 435.800 - 435.900 CW/SSB, 435.910 FM
Hamsat 24 Oct 06:08:31 06:11:34 19° 93° (E) 06:14:37 145.90 MHz
PCSat 24 Oct 06:21:05 06:24:56 19° 317° (NW) 06:28:47 145.825 MHz
